Starlink 32033

operational
NORAD ID: 60144 Int'l Des: 2024-120 Owner: SPXS Country: US Constellation: starlink
LEOCIRCULAR

About Starlink 32033

Description loading...

Live Position

Loading 3D Globe...

Upcoming Passes

Altitude History

Altitude vs Time

uPlot chart will show altitude changes over time

Two-Line Element Set

1 60144U 24120K 25304.93385618 .00021789 00000-0 72682-3 0 9996
2 60144 53.1579 197.9439 0001228 109.5785 250.5349 15.31028860 76664
Epoch: Oct 31, 2025 • Age: 34 hours

Current Status

Altitude 474.5 km
Velocity 7.63 km/s
Sub-Earth Point -4.28°S, 13.34°E
Launch Date Jun 27, 2024
Age 1.3 years
Type internet

Technical Details

Classification Payload
Mass 730.00 kg
Dry Mass 700.00 kg
Total Mass 730.00 kg
Length 0.30 m
Diameter 4.10 m
Span 29.00 m
Shape Box + pan
Manufacturer SPXS
Bus Type Starlink V2M
Phase Status In Orbit
Owner/State SPXS/US

Large Constellations

Loading constellations...